EW3791 Weather Reports


Display with metric or nautical units.
time (UTC)temp
F
wind
direction
speed
MPH
gust
MPH
rain 1hr
in
rain 24hr
in
rain mn
in
humidity
%
barometer
mb
20260902041529 81 243 0.0 4.0 0.00 0.02 0.02 82 1012.8
20260902040004 81 267 0.0 0.0 0.00 0.02 0.02 82 1012.8
20260902034549 81 258 0.0 0.0 0.00 0.02 0.02 82 1012.8
20260902033022 81 256 0.0 0.0 0.00 0.02 0.02 82 1012.9
20260902031614 82 254 1.0 4.0 0.00 0.02 0.02 82 1012.9
20260902030038 81 245 0.0 3.0 0.00 0.02 0.02 82 1012.6
20260902024508 81 228 0.0 4.0 0.00 0.02 0.02 82 1012.3
20260902023054 81 259 0.0 0.0 0.00 0.02 0.02 83 1012.3
20260902021521 81 271 0.0 0.0 0.00 0.02 0.02 83 1012.0
20260902020117 81 293 0.0 0.0 0.00 0.02 0.02 83 1011.8
20260902014534 81 293 1.0 3.0 0.00 0.02 0.02 83 1011.7
20260902013004 82 293 0.0 3.0 0.00 0.02 0.02 83 1011.4
20260902011547 82 309 1.0 3.0 0.00 0.02 0.02 83 1011.3
20260902010019 82 315 0.0 4.0 0.00 0.02 0.02 83 1011.2
20260902004600 82 316 1.0 3.0 0.00 0.02 0.02 83 1011.4
20260902003030 82 323 0.0 3.0 0.00 0.02 0.02 83 1011.5
20260902001612 82 325 2.0 5.0 0.00 0.02 0.02 83 1011.6
20260902000045 82 340 3.0 5.0 0.00 0.02 0.02 84 1011.5
20260901234517 82 354 2.0 7.0 0.00 0.02 0.02 85 1011.5
20260901233101 82 323 5.0 7.0 0.00 0.02 0.02 85 1011.6
20260901231533 82 354 4.0 7.0 0.00 0.02 0.02 86 1011.8
20260901230004 82 319 3.0 7.0 0.00 0.02 0.02 85 1012.1
20260901224542 82 330 4.0 10.0 0.00 0.02 0.02 85 1012.4
20260901223012 82 32 4.0 7.0 0.01 0.02 0.02 85 1012.2
20260901221550 83 55 5.0 8.0 0.02 0.02 0.02 86 1012.2
20260901220025 83 338 0.0 1.0 0.02 0.02 0.02 85 1012.1
20260901214600 84 342 0.0 3.0 0.02 0.02 0.02 84 1012.3
20260901213044 85 51 1.0 4.0 0.01 0.01 0.01 80 1012.6
20260901211512 87 11 4.0 8.0 0.00 0.00 0.00 75 1012.5
20260901210049 87 306 3.0 6.0 0.00 0.00 0.00 73 1012.3
20260901204532 87 324 2.0 6.0 0.00 0.00 0.00 74 1012.2
20260901203111 86 321 3.0 6.0 0.00 0.00 0.00 76 1012.2
20260901201550 85 302 1.0 5.0 0.00 0.00 0.00 78 1012.4
20260901200011 85 284 2.0 4.0 0.00 0.00 0.00 78 1012.8
20260901194554 85 330 1.0 4.0 0.00 0.24 0.00 76 1013.3
20260901193031 86 330 0.0 2.0 0.00 0.24 0.00 79 1013.6
20260901191504 86 330 0.0 2.0 0.00 0.24 0.00 78 1013.6
20260901190043 86 330 2.0 4.0 0.00 0.24 0.00 76 1013.5
20260901184526 86 300 2.0 4.0 0.00 0.24 0.00 75 1013.5
20260901183100 86 296 1.0 6.0 0.00 0.24 0.00 74 1013.7
20260901181549 86 354 2.0 6.0 0.00 0.24 0.00 73 1013.8
20260901180004 86 322 4.0 7.0 0.00 0.24 0.00 75 1014.0
20260901174555 86 338 1.0 6.0 0.00 0.24 0.00 76 1014.4
20260901173019 86 331 2.0 6.0 0.00 0.24 0.00 77 1014.7
20260901171600 86 330 1.0 4.0 0.00 0.24 0.00 76 1014.9
20260901170026 86 322 2.0 5.0 0.00 0.24 0.00 75 1015.0
20260901164609 86 335 3.0 9.0 0.00 0.24 0.00 74 1015.1
20260901163038 86 2 3.0 7.0 0.00 0.24 0.00 74 1015.2
20260901161510 86 332 2.0 7.0 0.00 0.24 0.00 75 1015.1
20260901160108 86 335 3.0 6.0 0.00 0.24 0.00 74 1014.9
20260901154520 86 326 3.0 8.0 0.00 0.24 0.00 75 1014.9
20260901153114 85 295 4.0 8.0 0.00 0.24 0.00 77 1014.8
20260901151528 84 326 5.0 9.0 0.00 0.24 0.00 79 1014.9
20260901150011 84 334 2.0 9.0 0.00 0.24 0.00 80 1014.9
20260901144547 84 29 0.0 5.0 0.00 0.24 0.00 81 1014.9
20260901143020 83 319 0.0 3.0 0.00 0.24 0.00 83 1014.9
20260901141557 83 314 3.0 6.0 0.00 0.24 0.00 83 1015.0
20260901140032 83 352 0.0 5.0 0.00 0.24 0.00 84 1015.0
20260901134603 82 44 0.0 4.0 0.00 0.24 0.00 84 1015.0
20260901133032 82 56 0.0 5.0 0.00 0.24 0.00 85 1015.1
20260901131512 81 49 1.0 5.0 0.00 0.24 0.00 87 1015.0
20260901130046 81 359 3.0 7.0 0.00 0.24 0.00 87 1014.8
20260901124525 80 336 3.0 6.0 0.00 0.24 0.00 88 1014.4
20260901123114 80 331 3.0 5.0 0.00 0.24 0.00 89 1014.2
20260901121531 80 359 0.0 4.0 0.00 0.24 0.00 89 1014.2
20260901120004 80 330 0.0 4.0 0.00 0.24 0.00 89 1014.1
20260901114548 80 330 2.0 4.0 0.00 0.24 0.00 89 1014.0
20260901113013 80 330 2.0 5.0 0.00 0.24 0.00 90 1014.0
20260901111607 80 333 1.0 4.0 0.00 0.24 0.00 90 1013.8
20260901110027 80 282 0.0 0.0 0.00 0.24 0.00 90 1013.7
20260901104501 80 281 0.0 0.0 0.00 0.24 0.00 89 1013.8
20260901103045 80 281 0.0 0.0 0.00 0.24 0.00 89 1013.7
20260901101514 81 279 0.0 2.0 0.00 0.24 0.00 90 1013.6
20260901094527 81 279 0.0 1.0 0.00 0.24 0.00 89 1013.8
20260901093108 81 279 0.0 0.0 0.00 0.24 0.00 89 1013.8
20260901091543 81 279 0.0 0.0 0.00 0.24 0.00 89 1014.0
20260901090015 81 279 0.0 0.0 0.00 0.24 0.00 88 1014.0
20260901084556 82 279 0.0 2.0 0.00 0.24 0.00 88 1014.0
20260901083033 81 279 0.0 3.0 0.00 0.24 0.00 88 1014.0
20260901081506 81 264 0.0 0.0 0.00 0.24 0.00 88 1013.8
20260901080049 81 264 0.0 0.0 0.00 0.24 0.00 88 1013.9
20260901074519 82 133 0.0 0.0 0.00 0.24 0.00 87 1014.1
20260901073100 82 132 0.0 0.0 0.00 0.24 0.00 87 1014.0
20260901071535 82 132 0.0 0.0 0.00 0.24 0.00 86 1014.1
20260901070005 82 132 0.0 0.0 0.00 0.24 0.00 86 1014.1
20260901064549 83 132 0.0 0.0 0.00 0.24 0.00 86 1014.2
20260901063030 83 132 0.0 0.0 0.00 0.24 0.00 85 1014.2
20260901061627 83 132 0.0 0.0 0.00 0.24 0.00 84 1014.3
20260901060032 84 132 0.0 0.0 0.00 0.24 0.00 83 1014.4
20260901054612 84 132 0.0 0.0 0.00 0.24 0.00 82 1014.3
20260901053107 84 132 0.0 0.0 0.00 0.24 0.00 82 1014.3
20260901051537 84 132 0.0 0.0 0.00 0.24 0.00 81 1014.3
20260901050106 85 132 0.0 0.0 0.00 0.24 0.00 81 1014.1
20260901044539 85 132 0.0 2.0 0.00 0.24 0.24 81 1013.9
20260901043009 85 120 0.0 3.0 0.00 0.24 0.24 81 1014.1